Погода в Подстепках

Россия / Самарская область     53°31′04″N   49°09′12″E
темп.,
°C
ветер,
м/с
пор.,
м/с
влажн.,
%
обл.,
%
осадки,
мм/ч
давл.,
гПа
погр.,
м
22 апреля, чт
чт2201:00+3ююв71295100 0.8 1023292
04:00+3ююв51098100 1.6 1024201
07:00+3ююв5995100 0.4 1024192
10:00+4ююв4789100 0.5 1025148
13:00+6ююв577989 0.0 1025213
16:00+8ююв567289 0.0 1023255
19:00+7ююв6107464 0.0 1024160
22:00+5ююв6107991 0.0 1025128
23 апреля, пт
пт2301:00+4ююв589218 0.0 1025112
04:00+2ююв459714 0.0 102667
07:00+3ююв349511 0.0 102667
10:00+5юв228526 0.0 1026148
13:00+7в237799 0.0 1024361
16:00+8в4672100 0.0 1022448
19:00+7в3479100 0.0 102166
22:00+6юв4482100 0.0 102039
24 апреля, сб
сб2401:00+5ююв2284100 0.0 101820
04:00+5юв2287100 0.0 101620
07:00+4юв3396100 0.1 101589
10:00+4вюв2296100 1.1 101482
13:00+4юв1195100 0.4 101377
16:00+5вюв229099 0.4 1012208
19:00+6вюв348825 0.0 101173
22:00+6ююв5885100 0.0 1010107
25 апреля, вс
вс2501:00+6ююз699453 0.0 1008108
04:00+4юз589654 0.5 1009103
07:00+4зюз587694 0.1 1011250
10:00+4юз5783100 0.3 1012246
13:00+5зюз597797 0.3 1014353
16:00+5з468114 0.4 1016317
19:00+4ююв227912 0.1 101527
22:00+4ююз34807 0.2 101628
26 апреля, пн
пн2601:00+3з338540 0.0 101740
04:00+2зюз35881 0.0 101855
07:00+2зюз35815 0.0 101995
10:00+4з356217 0.0 1020348
13:00+6ююз235866 0.0 1019550
16:00+6юв2258100 0.0 1018369
19:00+6юв3360100 0.0 101735
22:00+5ююв3463100 0.0 101630